Date String (YYYY-MM-DD hh:mm:ss) UTC,Instrument flags,Ambient pressure (hPa),Sample flow (lpm),Bypass flow (lpm),Sample temperature (°C),Ambient temperature (°C),ASC tube jacket temperature (°C),LED temperature (°C),Box temperature (°C),Sample RH (%),Span deviation,Mass concentration (μg/m³),Mass concentration (μg/m³),Mass concentration (μg/m³)
DateTimeUTC,F1_M11,P_M11,Q1_M11,Q2_M11,T1_M11,T2_M11,T3_M11,T4_M11,T5_M11,U1_M11,ZSPAN_M11,X2_M11,X0_M11,X1_M11
2022-04-02 21:00:00,,0822.3,5.00,0.00,28.4,27.6,00.0,37.2,30.1,10.4,-000.7,0006.96,0014.38,0005.87
2022-04-02 21:01:00,,0822.3,4.99,0.00,28.3,27.6,00.0,37.2,30.1,10.9,-000.9,0006.93,0013.65,0005.85
2022-04-02 21:02:00,,0822.4,5.02,0.00,28.3,27.6,00.0,37.2,30.1,10.7,-000.9,0006.92,0012.09,0005.88
2022-04-02 21:03:00,,0822.4,5.00,0.00,28.3,27.6,00.0,37.2,30.1,10.3,-000.1,0006.93,0012.96,0005.90
2022-04-02 21:04:00,,0822.3,4.99,0.00,28.3,27.6,00.0,37.2,30.1,10.3,-000.1,0006.96,0012.79,0005.93
2022-04-02 21:05:00,,0822.4,4.99,0.00,28.3,27.6,00.0,37.2,30.1,10.5,-000.4,0006.94,0012.55,0005.95
2022-04-02 21:06:00,,0822.4,5.02,0.00,28.3,27.6,00.0,37.2,30.1,10.4,-000.9,0006.95,0012.52,0005.97
2022-04-02 21:07:00,,0822.5,4.99,0.00,28.3,27.6,00.0,37.2,30.2,10.6,-001.0,0006.98,0012.75,0005.99
2022-04-02 21:08:00,,0822.4,4.99,0.00,28.4,27.7,00.0,37.3,30.2,10.5,-000.5,0007.04,0013.41,0006.01
2022-04-02 21:09:00,,0822.5,5.00,0.00,28.4,27.7,00.0,37.3,30.2,10.4,0000.0,0007.11,0013.57,0006.04
2022-04-02 21:10:00,,0822.4,5.01,0.00,28.4,27.7,00.0,37.3,30.2,10.3,0000.2,0007.12,0013.98,0006.05
2022-04-02 21:11:00,,0822.4,5.00,0.00,28.4,27.7,00.0,37.3,30.2,10.3,0000.5,0007.17,0014.80,0006.09
2022-04-02 21:12:00,,0822.3,5.00,0.00,28.4,27.7,00.0,37.3,30.2,10.4,0001.1,0007.19,0015.23,0006.12
2022-04-02 21:13:00,,0822.3,5.00,0.00,28.4,27.8,00.0,37.3,30.2,10.3,0001.4,0007.23,0015.34,0006.12
2022-04-02 21:14:00,,0822.3,5.00,0.00,28.4,27.8,00.0,37.3,30.2,10.2,0001.2,0007.26,0014.78,0006.13
2022-04-02 21:15:00,,0822.3,4.99,0.00,28.4,27.8,00.0,37.3,30.3,10.2,0000.9,0007.26,0015.04,0006.14
2022-04-02 21:16:00,,0822.3,5.00,0.00,28.4,27.8,00.0,37.3,30.3,10.1,0001.3,0007.25,0014.98,0006.15
2022-04-02 21:17:00,,0822.2,5.01,0.00,28.5,27.8,00.0,37.3,30.3,10.2,0001.8,0007.25,0015.47,0006.19
2022-04-02 21:18:00,,0822.2,4.99,0.00,28.5,27.8,00.0,37.3,30.3,10.3,0002.6,0007.26,0015.24,0006.23
2022-04-02 21:19:00,,0822.1,5.00,0.00,28.5,27.8,00.0,37.3,30.3,10.0,0003.3,0007.26,0014.58,0006.24
2022-04-02 21:20:00,,0822.1,5.01,0.00,28.5,27.9,00.0,37.4,30.3,09.9,0002.5,0007.24,0014.37,0006.24
2022-04-02 21:21:00,,0822.1,5.01,0.00,28.5,27.9,00.0,37.4,30.4,09.9,0001.5,0007.26,0014.24,0006.26
2022-04-02 21:22:00,,0822.1,5.01,0.00,28.5,27.9,00.0,37.4,30.4,10.0,0001.3,0007.23,0013.84,0006.24
2022-04-02 21:23:00,,0822.1,4.99,0.00,28.5,27.9,00.0,37.4,30.4,10.3,0001.0,0007.22,0013.38,0006.25
2022-04-02 21:24:00,,0822.1,4.99,0.00,28.5,27.9,00.0,37.4,30.4,10.5,0000.8,0007.20,0013.22,0006.26
2022-04-02 21:25:00,,0822.1,4.99,0.00,28.5,27.9,00.0,37.4,30.3,10.2,0002.8,0007.21,0013.42,0006.26
2022-04-02 21:26:00,,0822.1,5.02,0.00,28.5,27.9,00.0,37.4,30.3,10.1,0003.6,0007.22,0013.76,0006.25
2022-04-02 21:27:00,,0822.0,4.99,0.00,28.5,27.9,00.0,37.4,30.4,10.5,0002.7,0007.21,0014.29,0006.24
2022-04-02 21:28:00,,0822.0,4.99,0.00,28.5,27.9,00.0,37.4,30.3,10.5,0002.1,0007.24,0014.09,0006.21
2022-04-02 21:29:00,,0822.0,5.00,0.00,28.6,27.9,00.0,37.4,30.3,10.3,0001.2,0007.25,0014.39,0006.18
2022-04-02 21:30:00,,0822.0,5.00,0.00,28.6,27.9,00.0,37.4,30.4,10.2,0000.8,0007.23,0015.33,0006.18
2022-04-02 21:31:00,,0822.1,5.00,0.00,28.6,27.9,00.0,37.4,30.4,10.3,0001.0,0007.22,0016.41,0006.18
2022-04-02 21:32:00,,0822.1,4.99,0.00,28.6,27.9,00.0,37.5,30.4,10.3,0002.6,0007.19,0016.39,0006.16
2022-04-02 21:33:00,,0822.1,5.01,0.00,28.6,27.9,00.0,37.5,30.4,10.4,0001.9,0007.25,0016.83,0006.16
2022-04-02 21:34:00,,0822.1,5.00,0.00,28.6,27.9,00.0,37.5,30.5,10.4,0001.3,0007.30,0018.73,0006.15
2022-04-02 21:35:00,,0822.1,4.99,0.00,28.6,27.9,00.0,37.5,30.5,10.6,0003.4,0007.32,0019.11,0006.14
2022-04-02 21:36:00,,0822.0,4.99,0.00,28.6,27.9,00.0,37.5,30.5,10.5,0002.2,0007.33,0018.99,0006.15
2022-04-02 21:37:00,,0822.0,5.00,0.00,28.7,28.0,00.0,37.5,30.5,10.7,0002.7,0007.34,0019.81,0006.15
2022-04-02 21:38:00,,0822.0,5.01,0.00,28.7,28.0,00.0,37.5,30.5,10.5,0002.6,0007.35,0019.73,0006.14
2022-04-02 21:39:00,,0822.0,4.99,0.00,28.7,28.0,00.0,37.5,30.5,10.3,0003.8,0007.32,0019.64,0006.13
2022-04-02 21:40:00,,0821.9,5.00,0.00,28.7,28.0,00.0,37.5,30.5,10.1,0004.5,0007.29,0020.22,0006.12
2022-04-02 21:41:00,,0821.8,5.00,0.00,28.7,28.0,00.0,37.6,30.5,10.3,0002.8,0007.26,0020.18,0006.10
2022-04-02 21:42:00,,0822.1,5.00,0.00,28.7,28.0,00.0,37.6,30.6,10.3,0002.4,0007.22,0019.85,0006.08
2022-04-02 21:43:00,,0822.0,5.00,0.00,28.7,28.1,00.0,37.6,30.6,10.2,0004.3,0007.25,0019.93,0006.09
2022-04-02 21:44:00,,0821.8,5.01,0.00,28.7,28.1,00.0,37.6,30.5,10.1,0004.7,0007.21,0019.89,0006.08
2022-04-02 21:45:00,,0821.8,5.01,0.00,28.7,28.1,00.0,37.6,30.6,10.3,0003.3,0007.17,0018.76,0006.08
2022-04-02 21:46:00,,0821.8,4.97,0.00,28.8,28.1,00.0,37.6,30.5,10.1,0001.1,0007.12,0018.51,0006.08
2022-04-02 21:47:00,,0821.8,5.01,0.00,28.8,28.1,00.0,37.6,30.6,10.2,0000.6,0007.09,0018.74,0006.08
2022-04-02 21:48:00,,0821.8,5.01,0.00,28.8,28.1,00.0,37.6,30.6,10.5,0001.8,0007.01,0017.53,0006.05
2022-04-02 21:49:00,,0821.9,4.99,0.00,28.8,28.1,00.0,37.6,30.6,10.4,0000.0,0007.02,0017.02,0006.04
2022-04-02 21:50:00,,0821.9,5.01,0.00,28.8,28.1,00.0,37.6,30.6,10.2,0000.0,0007.06,0017.45,0006.06
2022-04-02 21:51:00,,0821.9,5.01,0.00,28.8,28.1,00.0,37.7,30.6,10.1,0000.0,0007.08,0016.88,0006.07
2022-04-02 21:52:00,,0821.8,5.00,0.00,28.8,28.1,00.0,37.7,30.7,10.1,-000.0,0007.10,0016.57,0006.08
2022-04-02 21:53:00,,0821.7,4.99,0.00,28.8,28.2,00.0,37.7,30.7,10.1,0000.1,0007.16,0016.57,0006.10
2022-04-02 21:54:00,,0821.7,5.00,0.00,28.9,28.2,00.0,37.7,30.7,10.1,0000.0,0007.16,0016.70,0006.09
2022-04-02 21:55:00,,0821.7,5.01,0.00,28.9,28.2,00.0,37.7,30.7,10.2,0000.0,0007.19,0017.36,0006.08
2022-04-02 21:56:00,,0821.7,5.00,0.00,28.9,28.2,00.0,37.7,30.7,10.0,0001.0,0007.21,0017.37,0006.08
2022-04-02 21:57:00,,0821.7,5.00,0.00,28.9,28.2,00.0,37.7,30.7,10.1,0001.3,0007.21,0017.75,0006.09
2022-04-02 21:58:00,,0821.6,5.00,0.00,28.9,28.2,00.0,37.7,30.7,10.2,0000.0,0007.22,0017.43,0006.06
2022-04-02 21:59:00,,0821.6,5.01,0.00,28.9,28.2,00.0,37.8,30.8,10.2,0000.0,0007.26,0017.30,0006.06
